Marysville, OH

4:50 AM EST on January 17, 2017 (GMT -0500)
Marysville

Weather History for KMRT - February, 2014

Change the Weather History Date:

Wednesday, February 19, 2014

  Actual Average (KDLZ) Record (KDLZ)
Temperature  
Mean Temperature 34 °F -  
Max Temperature 41 °F 42 °F 69 °F (1939)
Min Temperature 28 °F 23 °F -11 °F (1936)
Degree Days  
Heating Degree Days 30    
Moisture  
Dew Point 29 °F    
Average Humidity 75    
Maximum Humidity 90    
Minimum Humidity 61    
Precipitation  
Precipitation 0.00 in - - ()
Sea Level Pressure  
Sea Level Pressure 29.87 in    
Wind  
Wind Speed 10 mph (WSW)    
Max Wind Speed 20 mph    
Max Gust Speed 30 mph    
Visibility 9 miles    
Events      
Averages and records for this station are not official NWS values.
T = Trace of Precipitation, MM = Missing Value Source: NWS Daily Summary

Daily Weather History Graph

Daily Weather History Graph

Search for Another Location

Airport or City:

Trip Planner

Search our weather history database for the weather conditions in past years. The results will help you decide how hot, cold, wet, or windy it might be!

Date:

Astronomy

Feb. 19, 2014 Rise Set
Actual Time 7:21 AM EST 6:13 PM EST
Civil Twilight 6:53 AM EST 6:41 PM EST
Nautical Twilight 6:21 AM EST 7:13 PM EST
Astronomical Twilight 5:50 AM EST 7:44 PM EST
Moon 11:06 PM EST (2/19) 9:26 AM EST (2/19)
Length of Visible Light 11h 47m
Length of Day
10h 52m
Waning Gibbous, 80% of the Moon is Illuminated
Feb 19
Waning Gibbous
Feb 22
Last Quarter
Mar 1
New
Mar 8
First Quarter
Mar 16
Full

Hourly Weather History & Observations

Time (EST) Temp. Windchill Dew Point Humidity Pressure Visibility Wind Dir Wind Speed Gust Speed Precip Events Conditions
12:14 AM 37.8 °F 30.7 °F 25.5 °F 61% 29.78 in 10.0 mi SW 10.4 mph - N/A   Clear
12:34 AM 37.4 °F 32.1 °F 26.1 °F 64% 29.77 in 10.0 mi SW 6.9 mph - N/A   Scattered Clouds
12:54 AM 37.4 °F 31.4 °F 26.1 °F 64% 29.77 in 10.0 mi SW 8.1 mph - N/A   Scattered Clouds
1:14 AM 37.9 °F 31.5 °F 26.1 °F 62% 29.75 in 10.0 mi SSW 9.2 mph - N/A   Scattered Clouds
1:34 AM 37.6 °F 33.1 °F 27.3 °F 66% 29.75 in 10.0 mi SW 5.8 mph - N/A   Clear
1:54 AM 36.3 °F 32.5 °F 28.4 °F 73% 29.73 in 10.0 mi SSW 4.6 mph - N/A   Mostly Cloudy
2:14 AM 36.7 °F 31.2 °F 28.6 °F 72% 29.73 in 10.0 mi SSW 6.9 mph - N/A   Overcast
2:34 AM 37.9 °F 31.5 °F 28.6 °F 69% 29.72 in 10.0 mi South 9.2 mph - N/A   Overcast
2:54 AM 37.8 °F 31.3 °F 28.4 °F 69% 29.71 in 10.0 mi SSW 9.2 mph - N/A   Overcast
3:14 AM 37.4 °F 31.4 °F 29.3 °F 73% 29.70 in 10.0 mi SW 8.1 mph - N/A   Scattered Clouds
3:34 AM 37.9 °F 32.1 °F 29.7 °F 72% 29.69 in 10.0 mi SW 8.1 mph - N/A   Scattered Clouds
3:54 AM 37.9 °F 31.5 °F 30.0 °F 73% 29.68 in 10.0 mi SW 9.2 mph - N/A   Clear
4:14 AM 37.8 °F 30.7 °F 30.7 °F 76% 29.68 in 10.0 mi SW 10.4 mph - N/A   Clear
4:34 AM 39.2 °F 31.6 °F 32.0 °F 75% 29.67 in 10.0 mi SW 12.7 mph - N/A   Clear
4:54 AM 39.7 °F 33.2 °F 32.7 °F 76% 29.66 in 10.0 mi SW 10.4 mph - N/A   Clear
5:14 AM 39.0 °F 32.3 °F 32.5 °F 78% 29.65 in 10.0 mi SW 10.4 mph - N/A   Clear
5:34 AM 38.8 °F 31.6 °F 33.1 °F 80% 29.67 in 10.0 mi WSW 11.5 mph - N/A   Scattered Clouds
5:54 AM 39.4 °F 33.8 °F 33.4 °F 79% 29.67 in 10.0 mi WSW 8.1 mph - N/A   Scattered Clouds
6:14 AM 38.7 °F 31.4 °F 33.4 °F 81% 29.67 in 10.0 mi SW 11.5 mph - N/A   Scattered Clouds
6:34 AM 38.5 °F 31.6 °F 33.6 °F 83% 29.67 in 10.0 mi SW 10.4 mph - N/A   Mostly Cloudy
6:55 AM 38.1 °F 30.7 °F 33.8 °F 84% 29.67 in 10.0 mi SW 11.5 mph - N/A   Scattered Clouds
7:14 AM 38.3 °F 31.4 °F 34.0 °F 84% 29.67 in 10.0 mi SW 10.4 mph - N/A   Clear
7:34 AM 37.8 °F 30.7 °F 33.8 °F 86% 29.68 in 10.0 mi SW 10.4 mph - N/A   Scattered Clouds
7:54 AM 38.3 °F 31.4 °F 34.0 °F 84% 29.69 in 10.0 mi SW 10.4 mph - N/A   Clear
8:14 AM 39.4 °F 32.3 °F 34.2 °F 82% 29.70 in 10.0 mi WSW 11.5 mph - N/A   Clear
8:34 AM 40.1 °F 33.2 °F 33.8 °F 78% 29.71 in 10.0 mi WSW 11.5 mph - N/A   Clear
8:54 AM 40.1 °F 33.2 °F 33.3 °F 77% 29.72 in 10.0 mi West 11.5 mph - N/A   Clear
9:14 AM 41.4 °F 33.3 °F 32.7 °F 71% 29.73 in 10.0 mi West 16.1 mph 19.6 mph N/A   Clear
9:34 AM 41.9 °F 34.3 °F 32.0 °F 68% 29.74 in 10.0 mi West 15.0 mph 21.9 mph N/A   Clear
9:54 AM 41.5 °F 32.6 °F 31.6 °F 68% 29.77 in 10.0 mi WNW 19.6 mph 24.2 mph N/A   Clear
10:14 AM 40.6 °F 32.0 °F 31.1 °F 69% 29.78 in 10.0 mi WNW 17.3 mph 25.3 mph N/A   Clear
10:34 AM 40.3 °F 31.0 °F 29.7 °F 66% 29.80 in 10.0 mi WNW 19.6 mph 29.9 mph N/A   Clear
10:54 AM 39.6 °F 30.0 °F 29.3 °F 67% 29.81 in 10.0 mi WNW 19.6 mph 25.3 mph N/A   Clear
11:14 AM 39.6 °F 30.3 °F 29.3 °F 67% 29.83 in 10.0 mi WNW 18.4 mph - N/A   Clear
11:34 AM 39.2 °F 30.2 °F 29.3 °F 68% 29.85 in 10.0 mi WNW 17.3 mph 25.3 mph N/A   Clear
11:54 AM 39.6 °F 30.3 °F 28.8 °F 65% 29.86 in 10.0 mi WNW 18.4 mph 23.0 mph N/A   Clear
12:14 PM 39.7 °F 30.6 °F 28.4 °F 64% 29.87 in 10.0 mi WNW 18.4 mph 25.3 mph N/A   Clear
12:34 PM 39.7 °F 31.2 °F 28.0 °F 63% 29.88 in 10.0 mi WNW 16.1 mph 25.3 mph N/A   Clear
12:54 PM 39.6 °F 30.3 °F 28.2 °F 64% 29.88 in 10.0 mi WNW 18.4 mph - N/A   Clear
1:14 PM 39.6 °F 30.0 °F 28.2 °F 64% 29.90 in 10.0 mi WNW 19.6 mph 24.2 mph N/A   Clear
1:34 PM 39.6 °F 31.0 °F 28.4 °F 64% 29.91 in 10.0 mi WNW 16.1 mph 24.2 mph N/A   Clear
1:54 PM 39.4 °F 30.1 °F 28.6 °F 65% 29.93 in 10.0 mi West 18.4 mph 23.0 mph N/A   Scattered Clouds
2:14 PM 39.7 °F 32.7 °F 29.3 °F 66% 29.94 in 10.0 mi WNW 11.5 mph - N/A   Scattered Clouds
2:34 PM 39.6 °F 32.1 °F 29.3 °F 67% 29.95 in 10.0 mi WNW 12.7 mph 21.9 mph N/A   Scattered Clouds
2:54 PM 39.6 °F 31.7 °F 29.7 °F 68% 29.96 in 10.0 mi West 13.8 mph - N/A   Clear
3:14 PM 39.6 °F 32.5 °F 29.8 °F 68% 29.97 in 10.0 mi West 11.5 mph 18.4 mph N/A   Clear
3:34 PM 39.6 °F 31.7 °F 29.8 °F 68% 29.98 in 10.0 mi WNW 13.8 mph - N/A   Clear
3:54 PM 40.1 °F 34.1 °F 29.7 °F 66% 29.99 in 10.0 mi WNW 9.2 mph - N/A   Clear
4:14 PM 40.6 °F 36.0 °F 29.8 °F 65% 30.00 in 10.0 mi WNW 6.9 mph - N/A   Clear
4:34 PM 39.9 °F 33.4 °F 29.8 °F 67% 30.02 in 10.0 mi West 10.4 mph - N/A   Clear
4:54 PM 39.2 °F 32.0 °F 29.7 °F 69% 30.04 in 10.0 mi West 11.5 mph - N/A   Clear
5:14 PM 38.8 °F 32.1 °F 29.3 °F 69% 30.05 in 10.0 mi West 10.4 mph - N/A   Clear
5:34 PM 38.3 °F 31.4 °F 29.7 °F 71% 30.07 in 10.0 mi West 10.4 mph - N/A   Clear
5:54 PM 37.6 °F 32.3 °F 29.3 °F 72% 30.07 in 10.0 mi West 6.9 mph - N/A   Clear
6:14 PM 34.7 °F - 28.8 °F 79% 30.08 in 10.0 mi Calm Calm - N/A   Clear
6:34 PM 34.5 °F 30.4 °F 29.1 °F 81% 30.09 in 10.0 mi West 4.6 mph - N/A   Clear
6:54 PM 34.5 °F - 29.1 °F 81% 30.09 in 10.0 mi Calm Calm - N/A   Clear
7:14 PM 31.8 °F - 27.1 °F 83% 30.09 in 10.0 mi Calm Calm - N/A   Clear
7:34 PM 30.9 °F 27.5 °F 27.1 °F 86% 30.09 in 7.0 mi SW 3.5 mph - N/A   Clear
7:54 PM 29.3 °F 23.2 °F 25.9 °F 87% 30.09 in 7.0 mi SW 5.8 mph - N/A   Clear
8:14 PM 30.6 °F - 26.8 °F 86% 30.09 in 7.0 mi Calm Calm - N/A   Clear
8:34 PM 29.8 °F - 26.8 °F 88% 30.09 in 7.0 mi Calm Calm - N/A   Clear
8:54 PM 29.3 °F - 26.2 °F 88% 30.09 in 7.0 mi Calm Calm - N/A   Clear
9:14 PM 29.1 °F - 26.4 °F 90% 30.08 in 5.0 mi Calm Calm - N/A   Clear
9:34 PM 28.6 °F 23.5 °F 26.1 °F 90% 30.07 in 7.0 mi East 4.6 mph - N/A   Clear
9:54 PM 29.3 °F 22.3 °F 26.6 °F 90% 30.05 in 7.0 mi East 6.9 mph - N/A   Clear
10:14 PM 30.9 °F 26.2 °F 27.9 °F 88% 30.05 in 7.0 mi SE 4.6 mph - N/A   Clear
10:34 PM 30.2 °F - 27.0 °F 88% 30.05 in 7.0 mi Calm Calm - N/A   Clear
10:54 PM 30.6 °F - 27.3 °F 88% 30.05 in 5.0 mi Calm Calm - N/A   Clear
11:14 PM 30.0 °F - 27.0 °F 88% 30.06 in 5.0 mi Calm Calm - N/A   Clear
11:34 PM 30.7 °F 24.1 °F 27.5 °F 88% 30.09 in 7.0 mi SW 6.9 mph - N/A   Clear
11:54 PM 30.7 °F - 27.1 °F 86% 30.07 in 5.0 mi Calm Calm - N/A   Clear